When you browse on this site, cookies collect data to enhance your experience and personalize the content and advertising you see.
Visit our Privacy Policy to learn more. By continuing to use the site, you agree to this use of cookies and data.

Stündliche Wetter Hannover

Heute, 6 Juli, Montag

Zeit Temperatur Niederschläge Wind Luftdruck Luftfeuchtigkeit
00:00 +14°C° 0 mm 5 m/S 751 mmHg 86%
01:00 +14°C° 0 mm 5 m/S 751 mmHg 89%
02:00 +13°C° 0 mm 5 m/S 751 mmHg 88%
03:00 +13°C° 0 mm 5 m/S 752 mmHg 86%
04:00 +13°C° 0 mm 5 m/S 752 mmHg 84%
05:00 +13°C° 0 mm 6 m/S 752 mmHg 81%
06:00 +14°C° 0 mm 7 m/S 752 mmHg 79%
07:00 +14°C° 0 mm 7 m/S 752 mmHg 76%
08:00 +15°C° 0.2 mm 8 m/S 752 mmHg 73%
09:00 +16°C° 0.2 mm 8 m/S 752 mmHg 69%
10:00 +16°C° 0.2 mm 8 m/S 752 mmHg 66%
11:00 +17°C° 0.7 mm 8 m/S 753 mmHg 67%
12:00 +17°C° 0.7 mm 8 m/S 753 mmHg 67%
13:00 +17°C° 0.7 mm 9 m/S 753 mmHg 68%
14:00 +17°C° 0.4 mm 8 m/S 754 mmHg 67%
15:00 +17°C° 0.4 mm 8 m/S 754 mmHg 65%
16:00 +17°C° 0.4 mm 8 m/S 754 mmHg 63%
17:00 +16°C° 0.2 mm 7 m/S 755 mmHg 68%
18:00 +16°C° 0.2 mm 6 m/S 755 mmHg 72%
19:00 +15°C° 0.2 mm 5 m/S 756 mmHg 76%
20:00 +14°C° 0 mm 5 m/S 756 mmHg 80%
21:00 +12°C° 0 mm 4 m/S 757 mmHg 84%
22:00 +11°C° 0 mm 4 m/S 758 mmHg 88%
23:00 +11°C° 0 mm 4 m/S 758 mmHg 89%

Morgen, 7 Juli, Dienstag

Zeit Temperatur Niederschläge Wind Luftdruck Luftfeuchtigkeit
00:00 +10°C° 0 mm 4 m/S 758 mmHg 90%
01:00 +10°C° 0 mm 4 m/S 758 mmHg 92%
02:00 +10°C° 0 mm 3 m/S 758 mmHg 91%
03:00 +10°C° 0 mm 3 m/S 759 mmHg 91%
04:00 +10°C° 0 mm 3 m/S 759 mmHg 90%
05:00 +10°C° 0 mm 3 m/S 759 mmHg 85%
06:00 +11°C° 0 mm 3 m/S 759 mmHg 81%
07:00 +12°C° 0 mm 3 m/S 759 mmHg 76%
08:00 +13°C° 0 mm 3 m/S 759 mmHg 70%
09:00 +14°C° 0 mm 3 m/S 759 mmHg 64%
10:00 +15°C° 0 mm 4 m/S 759 mmHg 59%
11:00 +17°C° 0.1 mm 4 m/S 759 mmHg 58%
12:00 +18°C° 0.1 mm 4 m/S 758 mmHg 58%
13:00 +19°C° 0.1 mm 4 m/S 758 mmHg 57%
14:00 +19°C° 0.2 mm 5 m/S 758 mmHg 58%
15:00 +20°C° 0.2 mm 5 m/S 757 mmHg 59%
16:00 +20°C° 0.2 mm 5 m/S 757 mmHg 59%
17:00 +17°C° 0.2 mm 5 m/S 757 mmHg 67%
18:00 +17°C° 0.2 mm 4 m/S 757 mmHg 74%
19:00 +16°C° 0.2 mm 3 m/S 756 mmHg 81%
20:00 +14°C° 0 mm 3 m/S 756 mmHg 82%
21:00 +15°C° 0 mm 2 m/S 757 mmHg 84%
22:00 +14°C° 0 mm 2 m/S 757 mmHg 85%
23:00 +13°C° 0.3 mm 2 m/S 756 mmHg 88%

übermorgen, 8 Juli, Mittwoch

Zeit Temperatur Niederschläge Wind Luftdruck Luftfeuchtigkeit
00:00 +13°C° 0.3 mm 2 m/S 756 mmHg 90%
01:00 +12°C° 0.3 mm 2 m/S 756 mmHg 93%
02:00 +12°C° 0.7 mm 1 m/S 756 mmHg 94%
03:00 +12°C° 0.7 mm 1 m/S 756 mmHg 95%
04:00 +12°C° 0.7 mm 1 m/S 756 mmHg 95%
05:00 +12°C° 0.5 mm 1 m/S 755 mmHg 95%
06:00 +12°C° 0.5 mm 1 m/S 755 mmHg 95%
07:00 +12°C° 0.5 mm 1 m/S 755 mmHg 95%
08:00 +13°C° 0.3 mm 1 m/S 755 mmHg 94%
09:00 +13°C° 0.3 mm 1 m/S 756 mmHg 94%
10:00 +13°C° 0.3 mm 1 m/S 756 mmHg 93%
11:00 +14°C° 0.2 mm 1 m/S 756 mmHg 92%
12:00 +14°C° 0.2 mm 1 m/S 756 mmHg 92%
13:00 +14°C° 0.2 mm 2 m/S 756 mmHg 91%
14:00 +16°C° 0.1 mm 2 m/S 756 mmHg 85%
15:00 +17°C° 0.1 mm 3 m/S 756 mmHg 80%
16:00 +18°C° 0.1 mm 3 m/S 756 mmHg 74%
17:00 +18°C° 0.1 mm 2 m/S 757 mmHg 76%
18:00 +18°C° 0.1 mm 2 m/S 757 mmHg 77%
19:00 +18°C° 0.1 mm 2 m/S 757 mmHg 79%
20:00 +16°C° 0 mm 1 m/S 757 mmHg 82%
21:00 +14°C° 0 mm 1 m/S 757 mmHg 85%
22:00 +13°C° 0 mm 1 m/S 758 mmHg 88%
23:00 +12°C° 0 mm 1 m/S 758 mmHg 88%

9 Juli, Donnerstag

Zeit Temperatur Niederschläge Wind Luftdruck Luftfeuchtigkeit
00:00 +11°C° 0 mm 1 m/S 758 mmHg 89%
01:00 +11°C° 0 mm 1 m/S 758 mmHg 89%
02:00 +9°C° 0 mm 0 m/S 758 mmHg 89%
03:00 +9°C° 0 mm 0 m/S 758 mmHg 89%
04:00 +9°C° 0 mm 0 m/S 758 mmHg 89%
05:00 +10°C° 0 mm 0 m/S 758 mmHg 86%
06:00 +11°C° 0 mm 0 m/S 758 mmHg 82%
07:00 +13°C° 0 mm 0 m/S 758 mmHg 78%
08:00 +15°C° 0 mm 1 m/S 758 mmHg 75%
09:00 +18°C° 0 mm 1 m/S 759 mmHg 72%
10:00 +20°C° 0 mm 1 m/S 759 mmHg 68%
11:00 +19°C° 0 mm 2 m/S 758 mmHg 67%
12:00 +20°C° 0 mm 2 m/S 758 mmHg 65%
13:00 +21°C° 0 mm 2 m/S 757 mmHg 63%
14:00 +21°C° 0 mm 2 m/S 757 mmHg 66%
15:00 +21°C° 0 mm 2 m/S 757 mmHg 69%
16:00 +21°C° 0 mm 2 m/S 757 mmHg 72%
17:00 +21°C° 0 mm 2 m/S 756 mmHg 73%
18:00 +21°C° 0 mm 2 m/S 756 mmHg 73%
19:00 +23°C° 0 mm 1 m/S 756 mmHg 74%
20:00 +21°C° 0 mm 2 m/S 755 mmHg 77%
21:00 +19°C° 0 mm 2 m/S 755 mmHg 80%
22:00 +18°C° 0 mm 3 m/S 755 mmHg 83%
23:00 +18°C° 0 mm 3 m/S 755 mmHg 83%

10 Juli, Freitag

Zeit Temperatur Niederschläge Wind Luftdruck Luftfeuchtigkeit
00:00 +18°C° 0 mm 3 m/S 754 mmHg 83%
01:00 +18°C° 0 mm 3 m/S 754 mmHg 83%
02:00 +18°C° 0.3 mm 3 m/S 753 mmHg 84%
03:00 +18°C° 0.3 mm 3 m/S 753 mmHg 85%
04:00 +18°C° 0.3 mm 3 m/S 752 mmHg 87%
05:00 +18°C° 0.4 mm 4 m/S 752 mmHg 87%
06:00 +19°C° 0.4 mm 4 m/S 752 mmHg 87%
07:00 +19°C° 0.4 mm 4 m/S 751 mmHg 87%
08:00 +19°C° 0.3 mm 4 m/S 751 mmHg 88%
09:00 +19°C° 0.3 mm 4 m/S 751 mmHg 89%
10:00 +19°C° 0.3 mm 4 m/S 751 mmHg 90%
11:00 +19°C° 0.4 mm 5 m/S 751 mmHg 89%
12:00 +19°C° 0.4 mm 5 m/S 752 mmHg 87%
13:00 +19°C° 0.4 mm 6 m/S 752 mmHg 85%
14:00 +19°C° 0.1 mm 6 m/S 752 mmHg 78%
15:00 +20°C° 0.1 mm 6 m/S 752 mmHg 72%
16:00 +20°C° 0.1 mm 6 m/S 753 mmHg 65%
17:00 +19°C° 0 mm 6 m/S 753 mmHg 66%
18:00 +17°C° 0 mm 6 m/S 753 mmHg 68%
19:00 +16°C° 0 mm 6 m/S 754 mmHg 69%
20:00 +15°C° 0 mm 5 m/S 754 mmHg 73%
21:00 +13°C° 0 mm 5 m/S 755 mmHg 76%
22:00 +12°C° 0 mm 4 m/S 756 mmHg 80%
23:00 +11°C° 0 mm 4 m/S 756 mmHg 80%

11 Juli, Samstag

Zeit Temperatur Niederschläge Wind Luftdruck Luftfeuchtigkeit
00:00 +11°C° 0 mm 4 m/S 756 mmHg 81%
01:00 +9°C° 0 mm 5 m/S 757 mmHg 81%
02:00 +9°C° 0 mm 5 m/S 757 mmHg 82%
03:00 +10°C° 0 mm 4 m/S 757 mmHg 82%
04:00 +10°C° 0 mm 4 m/S 757 mmHg 83%
05:00 +10°C° 0 mm 5 m/S 758 mmHg 80%
06:00 +11°C° 0 mm 6 m/S 758 mmHg 77%
07:00 +13°C° 0 mm 6 m/S 758 mmHg 74%
08:00 +14°C° 0 mm 6 m/S 758 mmHg 70%
09:00 +15°C° 0 mm 7 m/S 759 mmHg 66%
10:00 +16°C° 0 mm 7 m/S 759 mmHg 62%
11:00 +16°C° 0.1 mm 7 m/S 760 mmHg 61%
12:00 +17°C° 0.1 mm 6 m/S 760 mmHg 60%
13:00 +17°C° 0.1 mm 6 m/S 760 mmHg 58%
14:00 +17°C° 0.2 mm 6 m/S 760 mmHg 60%
15:00 +17°C° 0.2 mm 5 m/S 760 mmHg 62%
16:00 +17°C° 0.2 mm 5 m/S 761 mmHg 63%
17:00 +17°C° 0 mm 4 m/S 761 mmHg 66%
18:00 +17°C° 0 mm 4 m/S 761 mmHg 69%
19:00 +16°C° 0 mm 3 m/S 761 mmHg 71%
20:00 +14°C° 0 mm 3 m/S 762 mmHg 77%
21:00 +13°C° 0 mm 2 m/S 762 mmHg 82%
22:00 +12°C° 0 mm 2 m/S 762 mmHg 87%
23:00 +10°C° 0 mm 2 m/S 763 mmHg 89%
Mehr zeigen